Location: Austin
(30.3000°N, 97.7500°W)
Time: 07:34:11
(UTC-06:00)

NOSS 2-2 (E) - Pass Details

Date: 10 January 2026
Orbit: 384 x 1721 km, 63.3° (Epoch: 22 January)

Event Time Altitude Azimuth Distance (km) Brightness Sun altitude
Rises 18:07:09 0° 335° (NNW) 2,786 7.0 -4.4°
Reaches altitude 10° 18:09:06 10° 339° (NNW) 2,024 6.2 -4.8°
Maximum altitude 18:13:39 66° 61° (ENE) 870 4.1 -5.7°
Drops below altitude 10° 18:20:10 10° 144° (SE) 2,861 6.8 -7.0°
Sets 18:23:20 0° 146° (SSE) 4,048 7.6 -7.7°
